Regional Weather Roundup
Issued by NWS

Home | Current Version | Previous Version | Graphics & Text | Print | Product List | Glossary On
Versions: 1 2 3 4 5 6 7 8 9 10 11 12 13 14 15 16 17 18 19 20 21 22 23 24 25 26 27 28 29 30 31 32 33 34 35 36 37 38 39 40 41 42 43 44 45 46 47 48 49 50
963
ASUS43 KIND 262259
RWRIN

WEATHER ROUNDUP FOR INDIANA
NATIONAL WEATHER SERVICE INDIANAPOLIS IN
700 PM EDT WED APR 26 2017

NOTE: "FAIR" INDICATES FEW OR NO CLOUDS BELOW 12,000 FEET WITH NO
SIGNIFICANT WEATHER AND/OR OBSTRUCTIONS TO VISIBILITY.

* - STATION DOES NOT REPORT WEATHER SUCH AS PRECIPITATION OR FOG.

+ - STATION NOT QUALITY CONTROLLED BY THE NATIONAL WEATHER SERVICE.
    USE DATA WITH CAUTION...ESPECIALLY DEWPOINT AND RELATIVE
    HUMIDITY OBSERVATIONS.

INZ001>003-010>013-019-020-270000-
NORTHWEST INDIANA

CITY           SKY/WX    TMP DP  RH WIND       PRES   REMARKS
GARY /AIRPORT/ PTSUNNY   77  50  38 SW14      29.49S
MONTICELLO +   MOSUNNY   77  53  42 W12G20    29.50R

$$

LMZ046-743>745-270000-
SOUTHERN LAKE MICHIGAN

STATION/POSITION TIME  TEMP    WIND        PRES    WAVE
                       AIR SEA DIR/SP/G            HT
                 (UTC) (F)     (DEG/KT/KT) (MB)    (FT)
BURNS HARBOR     2230   73     230/  9/ 19  999.0S
MICHIGAN CITY    2230   68     230/ 13/ 14   N/A
5NW MICH CITY    2240   60 49                N/A     1

$$

INZ004-005-014>016-021>024-270000-
NORTH CENTRAL INDIANA

CITY           SKY/WX    TMP DP  RH WIND       PRES   REMARKS
ELKHART        PTSUNNY   77  55  47 W6        29.50S
GOSHEN         PTSUNNY   78  53  41 SW10      29.50R
SOUTH BEND     PTSUNNY   75  55  49 W10       29.51R

$$

INZ006>009-017-018-025>027-270000-
NORTHEAST INDIANA

CITY           SKY/WX    TMP DP  RH WIND       PRES   REMARKS
ANGOLA *+      PTSUNNY   81  73  78 SW8       29.51S
FORT WAYNE     PTSUNNY   80  59  48 SW14      29.52R
KENDALLVILLE + CLOUDY    78  57  47 W13G21    29.52S

$$

INZ028-029-035-036-043>045-051>053-270000-
WEST CENTRAL INDIANA

CITY           SKY/WX    TMP DP  RH WIND       PRES   REMARKS
CRAWFORDSVL +  LGT RAIN  67  63  85 CALM      29.52R
GREENCASTLE +  CLOUDY    70  63  78 W9        29.55R
LAFAYETTE      LGT RAIN  73  55  53 W14G22    29.51R
TERRE HAUTE    CLOUDY    64  62  93 N7        29.53F

$$

INZ030>032-037>040-046>048-054>057-064-065-270000-
CENTRAL INDIANA

CITY           SKY/WX    TMP DP  RH WIND       PRES   REMARKS
COLUMBUS       MOSUNNY   79  54  41 S17       29.53S
INDIANAPOLIS   PTSUNNY   80  59  48 S20       29.48F
-EAGLE CREEK   CLOUDY    79  59  50 CALM      29.48F
KOKOMO +       CLOUDY    79  57  46 SW10      29.52S
SHELBYVILLE    MOSUNNY   83  58  42 S20G28    29.52S

$$

INZ033-034-041-042-049-050-058-059-270000-
EAST CENTRAL INDIANA

CITY           SKY/WX    TMP DP  RH WIND       PRES   REMARKS
MUNCIE         MOSUNNY   82  59  45 S16G24    29.52S
RICHMOND +     CLOUDY    79  55  44 SW17      29.59S

$$

INZ060-061-067>069-081>083-085>088-270000-
SOUTHWEST INDIANA

CITY           SKY/WX    TMP DP  RH WIND       PRES   REMARKS
EVANSVILLE     MOSUNNY   80  58  46 S14G25    29.50F
HUNTINGBURG *+ SUNNY     80  58  46 S12G22    29.52F

$$

INZ062-063-066-070>080-084-089>092-270000-
SOUTH CENTRAL AND SOUTHEAST INDIANA

CITY           SKY/WX    TMP DP  RH WIND       PRES   REMARKS
BLOOMINGTON    CLOUDY    79  57  46 S16G25    29.52R
MADISON *+     SUNNY     79  50  36 S12       29.59S
SEYMOUR +      CLOUDY    84  55  37 S18       29.53S

$$





USA.gov is the U.S. government's official web portal to all federal, state and local government web resources and services.